Location: Hebron
(33.0265°N, 96.8636°W)
Time: 01:56:01
(UTC+00:00)

Cosmos 1812 - Pass Details

Date: 05 July 2022
Orbit: 508 x 515 km, 82.5° (Epoch: 16 August)

Event Time Altitude Azimuth Distance (km) Brightness Sun altitude
Rises 07:33:10 0° 356° (N) 2,631 7.2 -32.3°
Reaches altitude 10° 07:35:19 10° 358° (N) 1,739 6.1 -32.2°
Enters shadow 07:36:21 18° 1° (N) 1,322 5.4 -32.1°
